QPF
0.16 0.15 0.15 0.16 0.15 0.18 0.23 0.24 0.22 0.22 0.21 0.22 0.22 0.20 0.20 0.20 0.20 0.20 0.19 0.16 0.14 0.13 0.11 0.10 0.09 0.08 0.07 0.06 0.05 0.04 0.04 0.03 0.02 0.02 0.01 0.01 0.01 0.00 0.00 0.00 0.00 0.00 0.00
0.13 0.14 0.15 0.12 0.12 0.13 0.17 0.21 0.20 0.19 0.18 0.17 0.18 0.19 0.18 0.18 0.18 0.19 0.20 0.19 0.16 0.13 0.11 0.10 0.09 0.08 0.07 0.06 0.05 0.04 0.03 0.03 0.02 0.02 0.02 0.01 0.01 0.01 0.00 0.00 0.00 0.00 0.00
0.09 0.09 0.10 0.09 0.09 0.10 0.12 0.13 0.15 0.17 0.16 0.14 0.12 0.13 0.14 0.14 0.15 0.15 0.14 0.15 0.15 0.14 0.13 0.11 0.09 0.08 0.08 0.07 0.06 0.05 0.04 0.03 0.02 0.02 0.01 0.01 0.00 0.00 0.00 0.00 0.00 0.00 0.00
0.08 0.07 0.06 0.06 0.06 0.05 0.05 0.06 0.08 0.10 0.12 0.12 0.12 0.12 0.12 0.13 0.14 0.15 0.14 0.13 0.13 0.13 0.13 0.13 0.11 0.09 0.07 0.07 0.06 0.05 0.03 0.02 0.02 0.02 0.01 0.01 0.00 0.00 0.00 0.00 0.00 0.00 0.00
0.06 0.05 0.04 0.04 0.04 0.04 0.04 0.04 0.05 0.06 0.07 0.08 0.10 0.10 0.10 0.10 0.11 0.12 0.13 0.13 0.11 0.10 0.10 0.10 0.09 0.08 0.07 0.06 0.05 0.04 0.03 0.02 0.02 0.01 0.01 0.00 0.00 0.00 0.00 0.00 0.00 0.00 0.00
0.03 0.03 0.02 0.02 0.02 0.02 0.03 0.03 0.03 0.04 0.04 0.05 0.07 0.08 0.08 0.09 0.11 0.11 0.09 0.09 0.08 0.07 0.06 0.05 0.05 0.06 0.06 0.07 0.05 0.04 0.03 0.02 0.01 0.01 0.00 0.00 0.00 0.00 0.00 0.00 0.00 0.00 0.00
0.02 0.02 0.02 0.02 0.02 0.01 0.01 0.02 0.02 0.03 0.03 0.04 0.04 0.05 0.06 0.08 0.10 0.10 0.10 0.08 0.07 0.06 0.05 0.04 0.03 0.03 0.04 0.04 0.05 0.05 0.04 0.02 0.02 0.01 0.01 0.01 0.01 0.01 0.01 0.01 0.01 0.01 0.00
0.02 0.02 0.02 0.02 0.01 0.01 0.02 0.02 0.02 0.03 0.03 0.04 0.04 0.05 0.05 0.07 0.10 0.10 0.10 0.08 0.08 0.07 0.06 0.05 0.04 0.03 0.02 0.02 0.03 0.03 0.03 0.02 0.02 0.01 0.01 0.01 0.01 0.01 0.01 0.01 0.01 0.01 0.00
0.03 0.02 0.02 0.02 0.01 0.02 0.02 0.02 0.02 0.03 0.04 0.04 0.04 0.04 0.04 0.04 0.05 0.06 0.07 0.06 0.07 0.08 0.07 0.06 0.05 0.04 0.04 0.04 0.03 0.03 0.03 0.03 0.02 0.02 0.02 0.01 0.01 0.02 0.01 0.01 0.01 0.01 0.00
0.01 0.01 0.01 0.01 0.02 0.02 0.02 0.01 0.01 0.02 0.03 0.04 0.04 0.04 0.04 0.03 0.04 0.04 0.04 0.04 0.04 0.05 0.05 0.05 0.06 0.05 0.05 0.05 0.04 0.04 0.04 0.03 0.02 0.02 0.02 0.01 0.01 0.01 0.01 0.01 0.00 0.00 0.00
0.00 0.00 0.00 0.00 0.02 0.03 0.03 0.02 0.02 0.02 0.03 0.03 0.04 0.04 0.03 0.04 0.04 0.04 0.03 0.03 0.03 0.03 0.04 0.04 0.04 0.06 0.06 0.05 0.04 0.04 0.04 0.04 0.04 0.03 0.03 0.02 0.02 0.01 0.01 0.01 0.00 0.00 0.00
0.00 0.00 0.00 0.00 0.01 0.02 0.03 0.03 0.03 0.03 0.03 0.03 0.04 0.03 0.03 0.03 0.04 0.04 0.04 0.04 0.04 0.04 0.03 0.03 0.04 0.06 0.07 0.07 0.07 0.06 0.05 0.05 0.04 0.04 0.03 0.03 0.02 0.02 0.01 0.01 0.00 0.00 0.00
0.00 0.00 0.00 0.00 0.00 0.01 0.01 0.02 0.03 0.03 0.04 0.04 0.04 0.04 0.04 0.03 0.03 0.04 0.04 0.06 0.06 0.06 0.05 0.05 0.05 0.07 0.08 0.08 0.08 0.07 0.06 0.05 0.04 0.03 0.02 0.02 0.02 0.02 0.01 0.01 0.00 0.00 0.00
0.00 0.00 0.00 0.00 0.00 0.00 0.01 0.01 0.01 0.02 0.03 0.03 0.04 0.04 0.04 0.04 0.04 0.04 0.04 0.05 0.08 0.08 0.07 0.07 0.07 0.07 0.08 0.08 0.08 0.07 0.06 0.04 0.04 0.03 0.02 0.02 0.01 0.01 0.01 0.00 0.00 0.00 0.00
0.00 0.00 0.00 0.00 0.00 0.00 0.00 0.01 0.01 0.01 0.02 0.02 0.03 0.04 0.05 0.05 0.05 0.06 0.06 0.06 0.07 0.08 0.09 0.08 0.08 0.07 0.07 0.07 0.07 0.06 0.05 0.04 0.04 0.03 0.03 0.02 0.01 0.01 0.00 0.00 0.00 0.00 0.00
0.00 0.00 0.00 0.00 0.00 0.00 0.00 0.00 0.01 0.01 0.02 0.02 0.02 0.03 0.04 0.05 0.07 0.07 0.08 0.08 0.09 0.10 0.12 0.11 0.09 0.07 0.06 0.06 0.06 0.06 0.06 0.05 0.04 0.03 0.02 0.01 0.01 0.00 0.00 0.00 0.00 0.00 0.00
0.00 0.00 0.00 0.00 0.01 0.01 0.01 0.01 0.01 0.01 0.01 0.02 0.03 0.03 0.04 0.05 0.06 0.06 0.07 0.07 0.08 0.11 0.12 0.09 0.08 0.07 0.07 0.07 0.07 0.07 0.06 0.05 0.05 0.04 0.03 0.02 0.01 0.01 0.01 0.00 0.00 0.00 0.00
0.00 0.00 0.00 0.01 0.01 0.01 0.01 0.01 0.01 0.02 0.02 0.02 0.02 0.03 0.04 0.05 0.05 0.05 0.06 0.08 0.09 0.10 0.09 0.07 0.06 0.06 0.07 0.08 0.08 0.08 0.08 0.07 0.06 0.05 0.04 0.02 0.02 0.01 0.01 0.00 0.00 0.00 0.00
0.00 0.00 0.01 0.01 0.01 0.01 0.02 0.02 0.02 0.02 0.02 0.02 0.02 0.03 0.04 0.06 0.06 0.06 0.07 0.08 0.07 0.07 0.06 0.06 0.06 0.06 0.07 0.07 0.08 0.09 0.09 0.08 0.07 0.06 0.04 0.03 0.02 0.01 0.01 0.00 0.00 0.00 0.01
0.00 0.00 0.01 0.01 0.01 0.02 0.02 0.03 0.03 0.02 0.02 0.02 0.02 0.02 0.04 0.06 0.06 0.05 0.06 0.06 0.06 0.06 0.06 0.06 0.07 0.07 0.07 0.08 0.08 0.09 0.10 0.09 0.08 0.07 0.05 0.04 0.02 0.02 0.01 0.01 0.01 0.01 0.01
0.01 0.01 0.01 0.01 0.02 0.02 0.03 0.03 0.03 0.03 0.03 0.03 0.02 0.02 0.04 0.06 0.05 0.05 0.06 0.06 0.06 0.07 0.07 0.07 0.08 0.08 0.08 0.08 0.09 0.09 0.09 0.08 0.07 0.06 0.04 0.03 0.03 0.02 0.01 0.01 0.01 0.01 0.01
0.01 0.01 0.01 0.02 0.02 0.02 0.02 0.03 0.03 0.03 0.03 0.03 0.03 0.03 0.05 0.05 0.05 0.06 0.06 0.07 0.06 0.07 0.07 0.08 0.09 0.09 0.09 0.08 0.08 0.08 0.08 0.07 0.06 0.05 0.04 0.04 0.03 0.02 0.02 0.02 0.02 0.02 0.01
0.01 0.01 0.01 0.01 0.02 0.02 0.02 0.02 0.03 0.03 0.03 0.03 0.04 0.04 0.04 0.05 0.06 0.07 0.07 0.07 0.06 0.06 0.07 0.08 0.09 0.09 0.08 0.08 0.08 0.08 0.08 0.06 0.05 0.05 0.05 0.05 0.04 0.03 0.03 0.02 0.02 0.02 0.02
0.01 0.01 0.02 0.02 0.02 0.02 0.02 0.02 0.03 0.03 0.04 0.04 0.04 0.05 0.05 0.05 0.06 0.06 0.06 0.06 0.06 0.06 0.06 0.06 0.07 0.07 0.06 0.06 0.07 0.07 0.06 0.06 0.06 0.06 0.05 0.05 0.04 0.04 0.03 0.03 0.03 0.03 0.02
0.01 0.01 0.01 0.02 0.02 0.02 0.02 0.02 0.03 0.03 0.03 0.04 0.04 0.05 0.05 0.05 0.05 0.06 0.06 0.06 0.05 0.05 0.05 0.05 0.05 0.05 0.06 0.06 0.06 0.05 0.06 0.06 0.06 0.05 0.05 0.05 0.04 0.04 0.04 0.04 0.03 0.03 0.03
0.01 0.01 0.02 0.02 0.02 0.02 0.02 0.02 0.03 0.03 0.04 0.04 0.04 0.04 0.04 0.04 0.05 0.06 0.06 0.06 0.05 0.05 0.05 0.05 0.05 0.05 0.05 0.05 0.05 0.05 0.06 0.06 0.06 0.06 0.05 0.04 0.04 0.04 0.04 0.04 0.04 0.03 0.03
MSLP
1011.19 1010.89 1010.61 1010.37 1010.15 1009.97 1009.81 1009.70 1009.61 1009.55 1009.52 1009.50 1009.49 1009.49 1009.50 1009.52 1009.55 1009.62 1009.72 1009.86 1010.03 1010.25 1010.49 1010.78 1011.11 1011.49 1011.93 1012.45 1013.05 1013.75 1014.51 1015.33 1016.17 1016.98 1017.71 1018.34 1018.84 1019.21 1019.45 1019.60 1019.69 1019.76 1019.85
1012.39 1012.09 1011.80 1011.53 1011.26 1011.01 1010.77 1010.56 1010.36 1010.18 1010.01 1009.85 1009.70 1009.56 1009.44 1009.34 1009.27 1009.25 1009.27 1009.35 1009.48 1009.65 1009.88 1010.15 1010.48 1010.86 1011.33 1011.88 1012.53 1013.28 1014.11 1014.99 1015.88 1016.74 1017.53 1018.19 1018.73 1019.13 1019.40 1019.57 1019.69 1019.79 1019.90
1013.56 1013.28 1012.99 1012.69 1012.38 1012.06 1011.75 1011.45 1011.14 1010.85 1010.55 1010.26 1009.98 1009.71 1009.46 1009.24 1009.08 1008.96 1008.92 1008.94 1009.02 1009.17 1009.37 1009.64 1009.96 1010.36 1010.84 1011.42 1012.10 1012.87 1013.73 1014.63 1015.55 1016.43 1017.24 1017.93 1018.48 1018.90 1019.21 1019.42 1019.57 1019.70 1019.85
1014.63 1014.37 1014.07 1013.75 1013.41 1013.04 1012.67 1012.29 1011.90 1011.51 1011.11 1010.71 1010.31 1009.93 1009.57 1009.25 1009.00 1008.81 1008.70 1008.67 1008.72 1008.84 1009.03 1009.28 1009.61 1010.01 1010.49 1011.07 1011.75 1012.52 1013.37 1014.26 1015.17 1016.04 1016.83 1017.52 1018.09 1018.53 1018.86 1019.11 1019.31 1019.50 1019.69
1015.55 1015.30 1015.00 1014.66 1014.29 1013.89 1013.47 1013.03 1012.58 1012.12 1011.65 1011.17 1010.69 1010.21 1009.77 1009.38 1009.05 1008.80 1008.64 1008.57 1008.59 1008.69 1008.86 1009.11 1009.42 1009.81 1010.29 1010.85 1011.50 1012.24 1013.05 1013.90 1014.75 1015.58 1016.34 1017.00 1017.56 1018.02 1018.38 1018.68 1018.95 1019.20 1019.46
1016.29 1016.03 1015.73 1015.38 1014.99 1014.57 1014.12 1013.66 1013.18 1012.68 1012.16 1011.63 1011.09 1010.57 1010.07 1009.61 1009.23 1008.93 1008.73 1008.63 1008.62 1008.70 1008.86 1009.09 1009.39 1009.77 1010.22 1010.75 1011.36 1012.04 1012.78 1013.56 1014.34 1015.09 1015.80 1016.43 1016.97 1017.44 1017.84 1018.20 1018.53 1018.85 1019.18
1016.84 1016.57 1016.26 1015.90 1015.50 1015.08 1014.63 1014.17 1013.68 1013.17 1012.64 1012.08 1011.52 1010.95 1010.41 1009.92 1009.50 1009.16 1008.92 1008.79 1008.75 1008.81 1008.96 1009.18 1009.47 1009.82 1010.25 1010.74 1011.30 1011.91 1012.58 1013.27 1013.97 1014.65 1015.29 1015.88 1016.41 1016.88 1017.31 1017.72 1018.11 1018.51 1018.91
1017.19 1016.91 1016.59 1016.22 1015.83 1015.42 1014.99 1014.55 1014.08 1013.58 1013.06 1012.50 1011.93 1011.35 1010.78 1010.26 1009.81 1009.43 1009.16 1008.99 1008.93 1008.97 1009.09 1009.29 1009.57 1009.91 1010.31 1010.77 1011.28 1011.84 1012.44 1013.06 1013.69 1014.30 1014.89 1015.43 1015.94 1016.42 1016.87 1017.32 1017.77 1018.22 1018.69
1017.38 1017.08 1016.74 1016.38 1016.01 1015.63 1015.23 1014.82 1014.38 1013.92 1013.41 1012.87 1012.29 1011.70 1011.13 1010.58 1010.09 1009.68 1009.36 1009.16 1009.06 1009.07 1009.17 1009.36 1009.62 1009.94 1010.33 1010.77 1011.26 1011.79 1012.34 1012.92 1013.49 1014.06 1014.61 1015.13 1015.62 1016.10 1016.57 1017.04 1017.52 1018.02 1018.53
1017.41 1017.09 1016.75 1016.41 1016.06 1015.71 1015.35 1014.98 1014.59 1014.16 1013.68 1013.16 1012.59 1012.00 1011.40 1010.83 1010.30 1009.85 1009.49 1009.24 1009.09 1009.06 1009.13 1009.29 1009.54 1009.86 1010.24 1010.68 1011.17 1011.69 1012.24 1012.80 1013.36 1013.91 1014.45 1014.96 1015.45 1015.93 1016.40 1016.89 1017.38 1017.89 1018.41
1017.31 1016.98 1016.65 1016.32 1016.00 1015.69 1015.37 1015.05 1014.70 1014.30 1013.85 1013.35 1012.79 1012.20 1011.59 1010.99 1010.43 1009.93 1009.52 1009.21 1009.01 1008.92 1008.95 1009.07 1009.30 1009.61 1009.99 1010.44 1010.94 1011.49 1012.06 1012.64 1013.23 1013.80 1014.34 1014.87 1015.37 1015.85 1016.33 1016.82 1017.31 1017.82 1018.33
1017.14 1016.80 1016.46 1016.15 1015.86 1015.58 1015.30 1015.02 1014.70 1014.34 1013.92 1013.44 1012.90 1012.31 1011.69 1011.07 1010.47 1009.93 1009.46 1009.08 1008.81 1008.66 1008.62 1008.70 1008.88 1009.17 1009.55 1010.01 1010.54 1011.13 1011.74 1012.38 1013.01 1013.63 1014.22 1014.78 1015.30 1015.81 1016.29 1016.77 1017.25 1017.74 1018.23
1016.93 1016.57 1016.23 1015.93 1015.65 1015.40 1015.15 1014.89 1014.60 1014.27 1013.88 1013.42 1012.90 1012.32 1011.71 1011.08 1010.46 1009.87 1009.35 1008.90 1008.56 1008.32 1008.21 1008.21 1008.34 1008.58 1008.94 1009.41 1009.96 1010.58 1011.25 1011.94 1012.64 1013.33 1013.98 1014.59 1015.16 1015.69 1016.20 1016.68 1017.15 1017.61 1018.08
1016.71 1016.33 1015.98 1015.67 1015.40 1015.15 1014.91 1014.67 1014.40 1014.09 1013.73 1013.30 1012.81 1012.26 1011.66 1011.04 1010.41 1009.80 1009.23 1008.72 1008.29 1007.97 1007.75 1007.67 1007.71 1007.89 1008.21 1008.65 1009.20 1009.85 1010.56 1011.32 1012.09 1012.84 1013.57 1014.25 1014.87 1015.45 1015.98 1016.47 1016.94 1017.40 1017.84
1016.51 1016.10 1015.73 1015.40 1015.11 1014.85 1014.61 1014.37 1014.10 1013.81 1013.47 1013.08 1012.62 1012.11 1011.55 1010.96 1010.34 1009.73 1009.12 1008.56 1008.06 1007.65 1007.33 1007.14 1007.08 1007.17 1007.41 1007.80 1008.33 1008.97 1009.70 1010.50 1011.33 1012.15 1012.95 1013.70 1014.39 1015.02 1015.59 1016.11 1016.60 1017.06 1017.51
1016.33 1015.89 1015.49 1015.12 1014.80 1014.51 1014.24 1013.98 1013.71 1013.43 1013.11 1012.75 1012.34 1011.89 1011.39 1010.84 1010.26 1009.66 1009.05 1008.45 1007.89 1007.39 1006.98 1006.67 1006.50 1006.48 1006.62 1006.93 1007.40 1008.01 1008.74 1009.55 1010.41 1011.28 1012.14 1012.96 1013.72 1014.41 1015.03 1015.60 1016.12 1016.61 1017.07
1016.18 1015.69 1015.24 1014.83 1014.46 1014.13 1013.82 1013.53 1013.24 1012.95 1012.65 1012.33 1011.98 1011.59 1011.15 1010.67 1010.15 1009.58 1008.99 1008.38 1007.78 1007.21 1006.70 1006.29 1006.00 1005.86 1005.89 1006.11 1006.49 1007.05 1007.74 1008.53 1009.40 1010.31 1011.21 1012.08 1012.90 1013.65 1014.33 1014.95 1015.52 1016.05 1016.55
1016.01 1015.49 1014.99 1014.53 1014.10 1013.71 1013.35 1013.02 1012.71 1012.41 1012.12 1011.83 1011.53 1011.20 1010.84 1010.43 1009.97 1009.46 1008.89 1008.29 1007.67 1007.05 1006.48 1005.98 1005.59 1005.34 1005.26 1005.37 1005.67 1006.14 1006.78 1007.54 1008.40 1009.31 1010.23 1011.13 1012.00 1012.80 1013.54 1014.21 1014.83 1015.40 1015.94
1015.82 1015.25 1014.71 1014.20 1013.72 1013.27 1012.86 1012.48 1012.14 1011.83 1011.54 1011.27 1011.01 1010.74 1010.44 1010.10 1009.71 1009.25 1008.73 1008.15 1007.53 1006.89 1006.27 1005.70 1005.23 1004.89 1004.72 1004.73 1004.94 1005.34 1005.91 1006.63 1007.45 1008.35 1009.27 1010.19 1011.08 1011.92 1012.70 1013.42 1014.08 1014.69 1015.27
1015.59 1014.99 1014.41 1013.85 1013.32 1012.82 1012.36 1011.94 1011.57 1011.24 1010.95 1010.69 1010.46 1010.23 1009.98 1009.70 1009.36 1008.95 1008.47 1007.92 1007.30 1006.66 1006.01 1005.41 1004.89 1004.49 1004.24 1004.19 1004.33 1004.65 1005.17 1005.83 1006.61 1007.48 1008.39 1009.31 1010.20 1011.06 1011.86 1012.61 1013.29 1013.94 1014.54
1015.32 1014.70 1014.09 1013.50 1012.93 1012.40 1011.90 1011.45 1011.05 1010.70 1010.40 1010.14 1009.92 1009.71 1009.49 1009.24 1008.93 1008.56 1008.10 1007.57 1006.97 1006.33 1005.67 1005.05 1004.51 1004.07 1003.79 1003.69 1003.78 1004.06 1004.52 1005.14 1005.88 1006.72 1007.60 1008.50 1009.38 1010.24 1011.04 1011.79 1012.49 1013.15 1013.76
1015.01 1014.38 1013.77 1013.16 1012.57 1012.02 1011.50 1011.03 1010.61 1010.24 1009.93 1009.66 1009.43 1009.22 1009.00 1008.76 1008.45 1008.09 1007.64 1007.11 1006.51 1005.87 1005.22 1004.60 1004.05 1003.61 1003.31 1003.19 1003.25 1003.51 1003.94 1004.53 1005.24 1006.04 1006.89 1007.76 1008.63 1009.46 1010.25 1010.99 1011.69 1012.34 1012.95
1014.70 1014.07 1013.45 1012.85 1012.27 1011.71 1011.19 1010.71 1010.28 1009.91 1009.58 1009.30 1009.05 1008.82 1008.58 1008.30 1007.98 1007.58 1007.11 1006.57 1005.96 1005.31 1004.66 1004.04 1003.49 1003.05 1002.76 1002.65 1002.71 1002.96 1003.38 1003.95 1004.65 1005.42 1006.24 1007.09 1007.92 1008.73 1009.49 1010.21 1010.89 1011.53 1012.14
1014.40 1013.79 1013.18 1012.59 1012.03 1011.49 1010.98 1010.51 1010.09 1009.71 1009.38 1009.08 1008.80 1008.53 1008.24 1007.92 1007.54 1007.09 1006.58 1005.99 1005.35 1004.68 1004.01 1003.39 1002.85 1002.42 1002.15 1002.05 1002.13 1002.39 1002.82 1003.38 1004.07 1004.82 1005.63 1006.45 1007.26 1008.04 1008.78 1009.48 1010.14 1010.76 1011.36
1014.14 1013.55 1012.96 1012.40 1011.86 1011.35 1010.87 1010.42 1010.01 1009.64 1009.30 1008.98 1008.67 1008.35 1008.01 1007.62 1007.17 1006.66 1006.07 1005.42 1004.73 1004.03 1003.34 1002.71 1002.17 1001.75 1001.49 1001.42 1001.52 1001.80 1002.24 1002.81 1003.50 1004.25 1005.05 1005.85 1006.64 1007.40 1008.13 1008.81 1009.45 1010.07 1010.66
1013.95 1013.37 1012.81 1012.28 1011.78 1011.30 1010.85 1010.42 1010.03 1009.67 1009.32 1008.98 1008.63 1008.27 1007.86 1007.40 1006.88 1006.29 1005.63 1004.92 1004.17 1003.42 1002.71 1002.06 1001.51 1001.11 1000.87 1000.81 1000.93 1001.23 1001.69 1002.28 1002.97 1003.72 1004.52 1005.31 1006.10 1006.85 1007.56 1008.24 1008.88 1009.50 1010.10
Thickness
5558 5562 5565 5569 5573 5576 5579 5582 5585 5587 5589 5589 5590 5591 5591 5591 5592 5592 5592 5592 5592 5591 5589 5589 5588 5587 5585 5583 5581 5579 5577 5574 5569 5561 5558 5555 5552 5550 5548 5547 5545 5543 5541
5549 5553 5556 5559 5563 5566 5569 5572 5574 5576 5577 5579 5581 5582 5582 5582 5583 5584 5584 5584 5583 5582 5581 5580 5578 5576 5575 5574 5571 5569 5567 5565 5561 5553 5548 5545 5543 5541 5539 5536 5534 5533 5531
5539 5542 5545 5548 5551 5554 5557 5560 5562 5564 5566 5568 5570 5571 5572 5572 5572 5574 5574 5574 5574 5573 5571 5570 5570 5567 5565 5563 5561 5559 5557 5553 5550 5546 5540 5536 5532 5530 5528 5525 5523 5522 5520
5529 5532 5534 5536 5538 5541 5544 5547 5549 5551 5553 5555 5556 5558 5559 5560 5560 5561 5562 5563 5563 5561 5560 5560 5559 5558 5556 5554 5551 5549 5546 5542 5538 5535 5531 5526 5523 5520 5518 5515 5512 5510 5509
5517 5520 5521 5523 5525 5527 5530 5532 5535 5537 5539 5540 5542 5544 5545 5546 5546 5547 5548 5549 5549 5549 5548 5547 5547 5546 5545 5544 5542 5539 5536 5532 5528 5524 5521 5517 5514 5511 5510 5507 5504 5500 5498
5504 5505 5507 5509 5511 5513 5515 5517 5518 5520 5522 5525 5526 5528 5530 5531 5532 5533 5534 5535 5535 5535 5534 5533 5533 5533 5533 5532 5531 5529 5527 5524 5520 5516 5513 5511 5508 5505 5501 5498 5494 5490 5487
5490 5492 5493 5494 5495 5496 5498 5499 5500 5502 5503 5505 5507 5510 5513 5514 5516 5517 5518 5519 5519 5520 5519 5519 5519 5519 5519 5519 5518 5517 5515 5515 5513 5511 5507 5504 5500 5498 5494 5489 5486 5483 5480
5478 5478 5478 5478 5478 5479 5480 5480 5481 5483 5484 5485 5487 5490 5493 5496 5498 5500 5501 5501 5503 5504 5504 5505 5505 5505 5505 5505 5504 5502 5501 5501 5501 5499 5497 5495 5493 5490 5487 5484 5479 5472 5468
5463 5462 5461 5461 5460 5460 5461 5461 5462 5463 5464 5465 5468 5470 5473 5477 5479 5482 5483 5483 5485 5486 5488 5490 5491 5491 5492 5492 5489 5487 5486 5485 5486 5486 5486 5484 5482 5480 5477 5472 5467 5462 5458
5447 5446 5445 5443 5442 5441 5440 5441 5441 5442 5444 5446 5448 5451 5453 5456 5459 5462 5464 5465 5467 5469 5471 5473 5476 5477 5478 5478 5476 5475 5473 5472 5471 5471 5471 5470 5469 5468 5466 5464 5461 5454 5450
5433 5431 5429 5426 5423 5422 5422 5421 5421 5422 5424 5425 5428 5431 5433 5436 5439 5442 5445 5446 5449 5451 5453 5456 5459 5462 5463 5463 5463 5463 5463 5461 5458 5457 5456 5455 5454 5453 5452 5451 5451 5448 5443
5418 5415 5411 5408 5405 5404 5402 5401 5400 5400 5401 5404 5406 5410 5412 5415 5418 5421 5425 5427 5430 5433 5437 5440 5443 5446 5447 5449 5449 5450 5449 5448 5444 5443 5442 5442 5441 5440 5439 5439 5438 5437 5436
5401 5396 5392 5388 5385 5382 5380 5379 5378 5378 5379 5381 5383 5387 5390 5393 5395 5400 5404 5408 5411 5415 5419 5423 5427 5430 5432 5434 5436 5436 5436 5434 5433 5432 5432 5432 5431 5429 5427 5425 5424 5424 5423
5383 5378 5373 5369 5366 5363 5360 5358 5357 5356 5357 5359 5361 5365 5369 5372 5374 5378 5383 5388 5393 5396 5400 5405 5410 5414 5417 5420 5422 5423 5423 5423 5423 5423 5422 5420 5417 5416 5415 5414 5413 5412 5410
5364 5359 5355 5350 5346 5344 5341 5338 5337 5337 5336 5339 5342 5344 5348 5353 5357 5361 5365 5370 5374 5378 5381 5385 5391 5396 5401 5404 5407 5409 5410 5411 5411 5410 5410 5408 5407 5406 5405 5404 5403 5402 5400
5347 5342 5337 5333 5329 5326 5324 5324 5323 5321 5322 5324 5325 5328 5332 5336 5341 5345 5350 5355 5359 5363 5366 5370 5377 5383 5389 5392 5395 5396 5398 5400 5400 5400 5399 5400 5399 5397 5396 5394 5393 5392 5391
5331 5326 5322 5318 5314 5311 5308 5307 5308 5310 5308 5310 5312 5314 5317 5321 5326 5331 5336 5340 5345 5349 5353 5359 5364 5370 5376 5380 5384 5386 5388 5390 5390 5390 5390 5390 5390 5389 5388 5386 5385 5384 5383
5317 5312 5308 5304 5300 5297 5294 5293 5292 5293 5296 5297 5299 5301 5304 5308 5312 5317 5322 5326 5331 5336 5342 5347 5353 5358 5364 5369 5373 5376 5378 5380 5381 5382 5383 5383 5382 5381 5380 5379 5378 5377 5376
5304 5299 5295 5291 5288 5285 5283 5282 5281 5281 5282 5285 5287 5289 5292 5296 5301 5305 5310 5313 5319 5325 5330 5336 5342 5347 5353 5359 5364 5368 5371 5373 5374 5375 5375 5375 5375 5374 5374 5373 5372 5372 5370
5293 5289 5284 5280 5278 5275 5273 5271 5271 5271 5272 5273 5276 5278 5280 5284 5289 5294 5298 5302 5307 5313 5319 5325 5332 5338 5344 5350 5355 5359 5363 5365 5367 5368 5369 5369 5369 5369 5369 5368 5367 5366 5366
5283 5279 5275 5270 5266 5264 5263 5262 5262 5262 5262 5264 5266 5269 5272 5275 5280 5284 5289 5294 5299 5304 5310 5316 5323 5330 5337 5342 5348 5352 5356 5359 5361 5362 5363 5364 5364 5364 5364 5363 5362 5361 5360
5274 5269 5265 5260 5257 5254 5254 5253 5253 5254 5255 5256 5259 5261 5265 5268 5272 5277 5282 5287 5292 5297 5302 5309 5316 5324 5330 5336 5342 5346 5350 5353 5356 5357 5359 5360 5360 5359 5359 5358 5357 5356 5355
5265 5261 5257 5253 5249 5248 5247 5246 5246 5247 5248 5250 5253 5256 5259 5262 5266 5271 5276 5281 5286 5291 5297 5303 5310 5317 5324 5330 5336 5341 5345 5349 5352 5354 5355 5355 5355 5355 5354 5354 5353 5352 5350
5258 5253 5249 5246 5243 5241 5240 5240 5240 5242 5243 5245 5248 5250 5253 5257 5261 5266 5270 5275 5280 5286 5291 5298 5305 5312 5318 5324 5329 5335 5340 5344 5346 5348 5350 5351 5351 5351 5350 5349 5348 5347 5346
5251 5246 5243 5240 5237 5236 5235 5235 5236 5237 5238 5241 5243 5246 5248 5252 5256 5260 5265 5270 5276 5281 5287 5293 5300 5307 5313 5319 5324 5329 5334 5338 5341 5343 5344 5345 5345 5345 5345 5344 5343 5342 5341
5245 5241 5237 5235 5233 5231 5231 5231 5232 5233 5234 5236 5238 5240 5243 5246 5250 5254 5260 5265 5270 5276 5282 5289 5295 5302 5309 5315 5320 5324 5329 5332 5335 5337 5338 5339 5339 5339 5339 5339 5338 5337 5335